Home > Weather > Atlantic City > Past weeks

Flag for USA Weather for the Past 2 Weeks in Atlantic City, New Jersey, USA

Now
47 °F

Overcast.


Feels Like: 43 °F
Forecast: 48 / 52 °F
Wind: 7 mph from Northeast

Location: Atlantic City International Airport

Current Time: Apr 28, 2016 at 9:03:26 PM

Latest Report: Apr 28, 2016 at 7:54 PM


Visibility: 10 mi

Pressure: 30.03 "Hg

Humidity: 86%

Dew Point: 43 °F

Location of Atlantic CityLocation

Historic Weather in Atlantic City — Graph

°F

Atlantic City Temperature Yesterday

Maximum temperature yesterday: 51 °F (at 12:54 PM)
Minimum temperature yesterday: 47 °F (at 10:54 PM)
Average temperature yesterday: 49 °F

High & Low Weather Summary for the Past Weeks

 TemperatureHumidityPressure
High85 °F (Apr 26, 3:54 PM)97% (Apr 23, 8:54 AM)30.45 "Hg (Apr 23, 8:54 AM)
Low31 °F (Apr 14, 5:54 AM)21% (Apr 17, 5:54 PM)29.60 "Hg (Apr 26, 3:54 PM)
Average55 °F61%30.10 "Hg
* Reported Apr 13 6:54 PM — Apr 28 6:54 PM, Atlantic City, Weather by CustomWeather, © 2016

Note: Actual official high and low records may vary slightly from our data, if they occured in-between our weather recording intervals... More about our weather records

Advertising

Atlantic City Weather History for the Previous 24 Hours

Scroll right to see more
 ConditionsComfort  
Time TempWeatherWind HumidityBarometerVisibility
6:54 PM
Thu, Apr 28
47 °FOvercast.7 mph86%30.02 "Hg10 mi
5:54 PM49 °FOvercast.10 mph84%30.02 "Hg10 mi
4:54 PM48 °FMore clouds than sun.8 mph74%30.00 "Hg10 mi
3:54 PM47 °FLight rain. Mostly cloudy.10 mph83%30.00 "Hg10 mi
2:54 PM48 °FLight rain. More clouds than sun.10 mph83%30.04 "Hg5 mi
1:54 PM49 °FLight rain. Mostly cloudy.7 mph80%30.05 "Hg7 mi
12:54 PM51 °FLight rain. Mostly cloudy.9 mph63%30.04 "Hg10 mi
11:54 AM53 °FMostly cloudy.18 mph47%30.03 "Hg10 mi
10:54 AM53 °FOvercast.16 mph45%30.04 "Hg10 mi
9:54 AM54 °FOvercast.18 mph45%30.03 "Hg10 mi
8:54 AM53 °FPartly sunny.16 mph59%30.02 "Hg10 mi
7:54 AM50 °FFog.8 mph86%30.01 "Hg6 mi
6:54 AM47 °FPassing clouds.No wind93%29.99 "Hg9 mi
5:54 AM43 °FPassing clouds.No wind93%29.97 "Hg10 mi
4:54 AM43 °FClear.No wind93%29.95 "Hg10 mi
3:54 AM43 °FClear.No wind89%29.95 "Hg10 mi
2:54 AM43 °FClear.3 mph93%29.93 "Hg10 mi
1:54 AM45 °FPassing clouds.No wind93%29.94 "Hg10 mi
12:54 AM44 °FClear.3 mph89%29.94 "Hg10 mi
11:54 PM
Wed, Apr 27
47 °FClear.3 mph86%29.93 "Hg10 mi
10:54 PM47 °FClear.No wind90%29.92 "Hg10 mi
9:54 PM48 °FClear.3 mph83%29.94 "Hg10 mi
Weather by CustomWeather, © 2016

See weather overviewHow to use our weather pages